星链-30339 (STARLINK-30339 )

导读

STARLINK-30339是美国SpaceX星链互联网卫星星座的成员,于2023年9月16日发射入轨。星链星座旨在为全球提供低延迟高速互联网覆盖,该卫星属于星座扩容部署批次,依托近地轨道运行,承担卫星互联网信号传输任务,服务地面用户的联网接入需求,是星链持续全球化组网布局的组成部分。

Basic Information
目录编号:
57882
目录名称:
STARLINK-30339
国际标识:
2023-144U
轨道中心:
EARTH
卫星名称:
星链-30339
卫星全名:
星链-30339 (STARLINK-30339 )
卫星状态:
在轨 (已飞行1006 天)
发射日期:
2023-09-16 UTC
国别 :
美国 (US)
星等 :
--
Orbit Information
数据来源 国际轨道数据 AOE轨道数据
星历时间 2026-06-16T19:52:32+0800
2天前
查看轨道信息
2026-06-14T17:00:00+0800
4天前
查看轨道信息
半长轴 6861.206km 6861.2km
偏心率 0.0000568 0.0001806
轨道倾角 42.997° 43.005°
近地点辐角 275.204° 299.310°
升交点赤经 87.607° 99.587°
平近点角 84.875° 269.690°
近地点 482.679km 481.823km
远地点 483.459km 484.303km
周期 94.267分钟 94.267分钟
每日圈数 15.275736 15.275754
Detailed Information
固有亮度:
5
最大亮度:
0.3
卫星平台:
Starlink v2.0 mini
覆盖范围:
全球
运营商:
太空探索技术公司
运营商所在国:
美国
制造商(研发单位):
太空探索技术公司
制造商所在国:
美国
使用方式:
暂无
Satellite Introduction
星链(Starlink)计划是由太空探索技术公司(SpaceX)提出的一个巨型低轨卫星互联网星座项目,计划在2019年至2024年间在太空搭建由约1.2万颗卫星组成的“星链”网络,其中1584颗将部署在地球上空550千米处的近地轨道,并从2020年开始工作。该卫星仍在工作。
2D Orbit Map
3D Orbit Map
Orbit Altitude Analysis Chart
Orbit Inclination Analysis Chart
Orbit Comprehensive Analysis Chart
View Comprehensive Chart